| time (UTC) | temp F | wind direction | speed MPH | gust MPH | rain 1hr in | rain 24hr in | rain mn in | humidity % | barometer mb |
| 20260504120248 | 46 | 288 | 4.0 | 6.0 | 0.00 | 0.00 | 0.00 | 61 | 1017.6 |
| 20260504110716 | 45 | 261 | 3.0 | 3.0 | 0.00 | 0.00 | 0.00 | 63 | 1017.4 |
| 20260504110212 | 45 | 276 | 2.0 | 2.0 | 0.00 | 0.00 | 0.00 | 63 | 1017.7 |
| 20260504100130 | 46 | 359 | 3.0 | 3.0 | 0.00 | 0.00 | 0.00 | 60 | 1017.4 |
| 20260504081523 | 50 | 12 | 9.0 | 13.0 | 0.00 | 0.00 | 0.00 | 51 | 1016.5 |
| 20260504081019 | 50 | 359 | 11.0 | 14.0 | 0.00 | 0.00 | 0.00 | 50 | 1016.4 |
| 20260504080515 | 50 | 20 | 11.0 | 14.0 | 0.00 | 0.00 | 0.00 | 49 | 1016.6 |
| 20260504050328 | 57 | 23 | 14.0 | 21.0 | 0.00 | 0.00 | 0.00 | 36 | 1011.7 |
| 20260504045825 | 58 | 31 | 16.0 | 18.0 | 0.00 | 0.00 | 0.00 | 36 | 1011.5 |
| 20260504045320 | 59 | 32 | 14.0 | 18.0 | 0.00 | 0.00 | 0.00 | 35 | 1011.3 |
| 20260504044817 | 58 | 3 | 10.0 | 10.0 | 0.00 | 0.00 | 0.00 | 36 | 1011.0 |
| 20260504044315 | 58 | 19 | 5.0 | 7.0 | 0.00 | 0.00 | 0.00 | 36 | 1010.7 |
| 20260504043812 | 58 | 8 | 6.0 | 8.0 | 0.00 | 0.00 | 0.00 | 36 | 1010.6 |
| 20260504043308 | 59 | 20 | 7.0 | 11.0 | 0.00 | 0.00 | 0.00 | 36 | 1010.3 |
| 20260504042806 | 59 | 18 | 5.0 | 7.0 | 0.00 | 0.00 | 0.00 | 36 | 1010.4 |
| 20260504042304 | 59 | 21 | 4.0 | 6.0 | 0.00 | 0.00 | 0.00 | 35 | 1010.1 |
| 20260504041759 | 59 | 10 | 4.0 | 6.0 | 0.00 | 0.00 | 0.00 | 35 | 1010.1 |
| 20260504041255 | 60 | 19 | 5.0 | 7.0 | 0.00 | 0.00 | 0.00 | 35 | 1010.2 |
| 20260504040751 | 60 | 10 | 9.0 | 9.0 | 0.00 | 0.00 | 0.00 | 34 | 1010.0 |
| 20260504040249 | 60 | 23 | 8.0 | 9.0 | 0.00 | 0.00 | 0.00 | 34 | 1009.7 |
| 20260504035744 | 60 | 2 | 4.0 | 7.0 | 0.00 | 0.00 | 0.00 | 34 | 1009.8 |
| 20260504035242 | 60 | 16 | 10.0 | 11.0 | 0.00 | 0.00 | 0.00 | 33 | 1009.6 |
| 20260504034739 | 61 | 27 | 7.0 | 8.0 | 0.00 | 0.00 | 0.00 | 33 | 1009.5 |
| 20260504034236 | 61 | 8 | 9.0 | 10.0 | 0.00 | 0.00 | 0.00 | 33 | 1009.2 |
| 20260504033734 | 60 | 18 | 8.0 | 10.0 | 0.00 | 0.00 | 0.00 | 33 | 1009.1 |
| 20260504033231 | 61 | 12 | 6.0 | 7.0 | 0.00 | 0.00 | 0.00 | 33 | 1009.0 |
| 20260504032728 | 61 | 16 | 7.0 | 9.0 | 0.00 | 0.00 | 0.00 | 32 | 1009.0 |
| 20260504032225 | 61 | 17 | 6.0 | 7.0 | 0.00 | 0.00 | 0.00 | 31 | 1008.8 |
| 20260504031722 | 62 | 3 | 7.0 | 8.0 | 0.00 | 0.00 | 0.00 | 31 | 1008.8 |
| 20260504031219 | 63 | 6 | 7.0 | 9.0 | 0.00 | 0.00 | 0.00 | 30 | 1008.6 |
| 20260504030715 | 62 | 22 | 6.0 | 8.0 | 0.00 | 0.00 | 0.00 | 29 | 1008.6 |
| 20260504030213 | 62 | 37 | 3.0 | 3.0 | 0.00 | 0.00 | 0.00 | 28 | 1008.5 |
| 20260504025709 | 63 | 2 | 4.0 | 4.0 | 0.00 | 0.00 | 0.00 | 27 | 1008.6 |
| 20260504025205 | 63 | 39 | 3.0 | 4.0 | 0.00 | 0.00 | 0.00 | 26 | 1008.4 |
| 20260504024703 | 63 | 351 | 5.0 | 7.0 | 0.00 | 0.00 | 0.00 | 25 | 1008.3 |
| 20260504024159 | 62 | 46 | 3.0 | 3.0 | 0.00 | 0.00 | 0.00 | 25 | 1008.2 |
| 20260504023656 | 64 | 0 | 3.0 | 4.0 | 0.00 | 0.00 | 0.00 | 24 | 1008.0 |
| 20260504023152 | 65 | 10 | 4.0 | 4.0 | 0.00 | 0.00 | 0.00 | 23 | 1008.0 |
| 20260504022648 | 66 | 1 | 4.0 | 6.0 | 0.00 | 0.00 | 0.00 | 23 | 1008.0 |
| 20260504022144 | 66 | 2 | 3.0 | 3.0 | 0.00 | 0.00 | 0.00 | 23 | 1008.2 |
| 20260504021642 | 67 | 3 | 4.0 | 4.0 | 0.00 | 0.00 | 0.00 | 23 | 1008.2 |
| 20260504021139 | 68 | 7 | 4.0 | 4.0 | 0.00 | 0.00 | 0.00 | 22 | 1008.2 |
| 20260504020636 | 68 | 356 | 5.0 | 6.0 | 0.00 | 0.00 | 0.00 | 22 | 1008.3 |
| 20260504020132 | 69 | 356 | 4.0 | 4.0 | 0.00 | 0.00 | 0.00 | 22 | 1008.3 |
| 20260504015629 | 69 | 5 | 6.0 | 7.0 | 0.00 | 0.00 | 0.00 | 21 | 1008.2 |
| 20260504015125 | 70 | 358 | 7.0 | 8.0 | 0.00 | 0.00 | 0.00 | 21 | 1008.2 |
| 20260504014621 | 71 | 9 | 7.0 | 9.0 | 0.00 | 0.00 | 0.00 | 21 | 1008.3 |
| 20260504014118 | 71 | 5 | 9.0 | 9.0 | 0.00 | 0.00 | 0.00 | 20 | 1008.3 |
| 20260504013616 | 72 | 0 | 8.0 | 9.0 | 0.00 | 0.00 | 0.00 | 20 | 1008.0 |
| 20260504013112 | 73 | 64 | 6.0 | 9.0 | 0.00 | 0.00 | 0.00 | 20 | 1008.0 |
| 20260504012610 | 73 | 5 | 8.0 | 9.0 | 0.00 | 0.00 | 0.00 | 20 | 1008.0 |
| 20260504012108 | 73 | 2 | 8.0 | 9.0 | 0.00 | 0.00 | 0.00 | 20 | 1008.3 |
| 20260504011604 | 73 | 18 | 7.0 | 7.0 | 0.00 | 0.00 | 0.00 | 19 | 1008.0 |
| 20260504011100 | 73 | 9 | 8.0 | 9.0 | 0.00 | 0.00 | 0.00 | 19 | 1008.0 |
| 20260504010556 | 74 | 2 | 6.0 | 7.0 | 0.00 | 0.00 | 0.00 | 19 | 1007.9 |
| 20260504010052 | 74 | 355 | 8.0 | 10.0 | 0.00 | 0.00 | 0.00 | 19 | 1008.0 |
| 20260504005549 | 74 | 6 | 8.0 | 10.0 | 0.00 | 0.00 | 0.00 | 19 | 1008.2 |
| 20260504005046 | 75 | 359 | 9.0 | 11.0 | 0.00 | 0.00 | 0.00 | 18 | 1008.3 |
| 20260504004544 | 75 | 12 | 5.0 | 6.0 | 0.00 | 0.00 | 0.00 | 19 | 1008.2 |
| 20260504004041 | 75 | 17 | 7.0 | 9.0 | 0.00 | 0.00 | 0.00 | 18 | 1008.3 |
| 20260504003537 | 75 | 7 | 7.0 | 9.0 | 0.00 | 0.00 | 0.00 | 18 | 1008.4 |
| 20260504003034 | 75 | 350 | 9.0 | 10.0 | 0.00 | 0.00 | 0.00 | 18 | 1008.4 |
| 20260504002531 | 76 | 346 | 5.0 | 6.0 | 0.00 | 0.00 | 0.00 | 18 | 1008.3 |
| 20260504002029 | 76 | 3 | 5.0 | 7.0 | 0.00 | 0.00 | 0.00 | 18 | 1008.5 |
| 20260504001526 | 76 | 346 | 4.0 | 4.0 | 0.00 | 0.00 | 0.00 | 18 | 1008.5 |
| 20260504001022 | 76 | 344 | 6.0 | 7.0 | 0.00 | 0.00 | 0.00 | 18 | 1008.6 |
| 20260504000519 | 76 | 331 | 6.0 | 7.0 | 0.00 | 0.00 | 0.00 | 18 | 1008.7 |
| 20260504000017 | 76 | 317 | 8.0 | 9.0 | 0.00 | 0.00 | 0.00 | 17 | 1008.6 |
| 20260503235515 | 76 | 332 | 4.0 | 4.0 | 0.00 | 0.00 | 0.00 | 19 | 1008.6 |
| 20260503235011 | 76 | 344 | 7.0 | 8.0 | 0.00 | 0.00 | 0.00 | 19 | 1008.6 |
| 20260503234509 | 76 | 339 | 9.0 | 10.0 | 0.00 | 0.00 | 0.00 | 18 | 1008.6 |
| 20260503234008 | 76 | 328 | 11.0 | 11.0 | 0.00 | 0.00 | 0.00 | 17 | 1008.6 |
| 20260503233503 | 76 | 318 | 6.0 | 8.0 | 0.00 | 0.00 | 0.00 | 19 | 1008.6 |
| 20260503232959 | 76 | 351 | 11.0 | 13.0 | 0.00 | 0.00 | 0.00 | 17 | 1008.7 |
| 20260503232456 | 76 | 284 | 7.0 | 8.0 | 0.00 | 0.00 | 0.00 | 18 | 1008.7 |
| 20260503231954 | 77 | 334 | 9.0 | 10.0 | 0.00 | 0.00 | 0.00 | 18 | 1009.1 |
| 20260503231451 | 77 | 298 | 8.0 | 9.0 | 0.00 | 0.00 | 0.00 | 17 | 1008.9 |
| 20260503230948 | 77 | 302 | 11.0 | 13.0 | 0.00 | 0.00 | 0.00 | 17 | 1008.9 |
| 20260503230444 | 76 | 328 | 9.0 | 10.0 | 0.00 | 0.00 | 0.00 | 18 | 1009.0 |
| 20260503225942 | 76 | 324 | 4.0 | 4.0 | 0.00 | 0.00 | 0.00 | 19 | 1009.0 |
| 20260503225439 | 77 | 349 | 5.0 | 6.0 | 0.00 | 0.00 | 0.00 | 17 | 1009.2 |
| 20260503224934 | 77 | 316 | 8.0 | 10.0 | 0.00 | 0.00 | 0.00 | 18 | 1009.0 |
| 20260503224431 | 76 | 322 | 13.0 | 15.0 | 0.00 | 0.00 | 0.00 | 18 | 1008.9 |
| 20260503223929 | 76 | 328 | 10.0 | 11.0 | 0.00 | 0.00 | 0.00 | 18 | 1009.6 |
| 20260503223427 | 77 | 292 | 12.0 | 15.0 | 0.00 | 0.00 | 0.00 | 18 | 1009.4 |
| 20260503222922 | 76 | 309 | 12.0 | 13.0 | 0.00 | 0.00 | 0.00 | 18 | 1009.4 |
| 20260503222421 | 76 | 348 | 8.0 | 9.0 | 0.00 | 0.00 | 0.00 | 19 | 1009.4 |
| 20260503221919 | 76 | 308 | 9.0 | 11.0 | 0.00 | 0.00 | 0.00 | 19 | 1009.5 |
| 20260503221417 | 76 | 329 | 6.0 | 8.0 | 0.00 | 0.00 | 0.00 | 19 | 1009.7 |
| 20260503220913 | 76 | 333 | 7.0 | 8.0 | 0.00 | 0.00 | 0.00 | 17 | 1009.7 |
| 20260503220410 | 77 | 281 | 12.0 | 14.0 | 0.00 | 0.00 | 0.00 | 17 | 1009.6 |
| 20260503215907 | 75 | 331 | 4.0 | 7.0 | 0.00 | 0.00 | 0.00 | 18 | 1009.8 |
| 20260503215404 | 76 | 266 | 8.0 | 10.0 | 0.00 | 0.00 | 0.00 | 18 | 1009.8 |
| 20260503214902 | 76 | 315 | 8.0 | 9.0 | 0.00 | 0.00 | 0.00 | 17 | 1009.9 |
| 20260503214359 | 75 | 313 | 12.0 | 15.0 | 0.00 | 0.00 | 0.00 | 17 | 1009.9 |
| 20260503213856 | 76 | 301 | 11.0 | 13.0 | 0.00 | 0.00 | 0.00 | 17 | 1010.2 |
| 20260503213354 | 76 | 350 | 6.0 | 7.0 | 0.00 | 0.00 | 0.00 | 19 | 1010.2 |
| 20260503212850 | 76 | 334 | 9.0 | 11.0 | 0.00 | 0.00 | 0.00 | 18 | 1010.2 |
| 20260503212348 | 75 | 321 | 10.0 | 11.0 | 0.00 | 0.00 | 0.00 | 19 | 1010.3 |
| 20260503211845 | 75 | 301 | 7.0 | 8.0 | 0.00 | 0.00 | 0.00 | 18 | 1010.4 |
| 20260503211342 | 74 | 314 | 10.0 | 11.0 | 0.00 | 0.00 | 0.00 | 18 | 1010.7 |
| 20260503210837 | 75 | 335 | 9.0 | 11.0 | 0.00 | 0.00 | 0.00 | 17 | 1010.7 |
| 20260503210335 | 76 | 351 | 11.0 | 13.0 | 0.00 | 0.00 | 0.00 | 18 | 1010.4 |
| 20260503205829 | 75 | 302 | 10.0 | 11.0 | 0.00 | 0.00 | 0.00 | 18 | 1010.8 |
| 20260503205326 | 74 | 313 | 6.0 | 7.0 | 0.00 | 0.00 | 0.00 | 19 | 1010.8 |
| 20260503204823 | 74 | 304 | 7.0 | 8.0 | 0.00 | 0.00 | 0.00 | 17 | 1011.0 |
| 20260503204320 | 76 | 307 | 14.0 | 16.0 | 0.00 | 0.00 | 0.00 | 18 | 1011.1 |
| 20260503203817 | 74 | 323 | 12.0 | 14.0 | 0.00 | 0.00 | 0.00 | 18 | 1010.9 |
| 20260503203315 | 74 | 299 | 11.0 | 13.0 | 0.00 | 0.00 | 0.00 | 17 | 1011.1 |
| 20260503202811 | 74 | 307 | 11.0 | 14.0 | 0.00 | 0.00 | 0.00 | 18 | 1011.3 |
| 20260503202310 | 74 | 301 | 11.0 | 14.0 | 0.00 | 0.00 | 0.00 | 19 | 1011.2 |
| 20260503201807 | 74 | 292 | 12.0 | 14.0 | 0.00 | 0.00 | 0.00 | 18 | 1011.4 |
| 20260503201304 | 75 | 350 | 7.0 | 8.0 | 0.00 | 0.00 | 0.00 | 18 | 1011.5 |
| 20260503200802 | 73 | 266 | 9.0 | 10.0 | 0.00 | 0.00 | 0.00 | 19 | 1011.3 |
| 20260503200257 | 74 | 277 | 16.0 | 17.0 | 0.00 | 0.00 | 0.00 | 18 | 1011.5 |
| 20260503195755 | 74 | 316 | 9.0 | 11.0 | 0.00 | 0.00 | 0.00 | 19 | 1011.5 |
| 20260503195251 | 74 | 293 | 13.0 | 16.0 | 0.00 | 0.00 | 0.00 | 18 | 1011.5 |
| 20260503194749 | 73 | 312 | 12.0 | 13.0 | 0.00 | 0.00 | 0.00 | 18 | 1011.7 |
| 20260503194244 | 73 | 312 | 10.0 | 13.0 | 0.00 | 0.00 | 0.00 | 18 | 1011.7 |
| 20260503193741 | 72 | 325 | 10.0 | 11.0 | 0.00 | 0.00 | 0.00 | 19 | 1011.8 |
| 20260503193237 | 72 | 298 | 10.0 | 11.0 | 0.00 | 0.00 | 0.00 | 18 | 1011.8 |
| 20260503192733 | 73 | 281 | 15.0 | 18.0 | 0.00 | 0.00 | 0.00 | 18 | 1011.7 |
| 20260503192228 | 73 | 294 | 12.0 | 13.0 | 0.00 | 0.00 | 0.00 | 18 | 1011.7 |
| 20260503191725 | 72 | 295 | 9.0 | 11.0 | 0.00 | 0.00 | 0.00 | 20 | 1012.0 |
| 20260503191222 | 73 | 338 | 9.0 | 10.0 | 0.00 | 0.00 | 0.00 | 19 | 1012.1 |
| 20260503190719 | 73 | 298 | 10.0 | 11.0 | 0.00 | 0.00 | 0.00 | 19 | 1012.2 |
| 20260503190216 | 73 | 312 | 5.0 | 8.0 | 0.00 | 0.00 | 0.00 | 19 | 1012.1 |
| 20260503185713 | 73 | 273 | 7.0 | 8.0 | 0.00 | 0.00 | 0.00 | 20 | 1012.2 |
| 20260503185208 | 73 | 256 | 11.0 | 14.0 | 0.00 | 0.00 | 0.00 | 20 | 1012.1 |
| 20260503184703 | 73 | 283 | 10.0 | 10.0 | 0.00 | 0.00 | 0.00 | 20 | 1012.3 |
| 20260503184200 | 72 | 272 | 6.0 | 11.0 | 0.00 | 0.00 | 0.00 | 22 | 1012.3 |
| 20260503183656 | 73 | 329 | 5.0 | 6.0 | 0.00 | 0.00 | 0.00 | 21 | 1012.6 |
| 20260503183154 | 73 | 280 | 9.0 | 10.0 | 0.00 | 0.00 | 0.00 | 21 | 1012.4 |
| 20260503182651 | 72 | 287 | 18.0 | 21.0 | 0.00 | 0.00 | 0.00 | 20 | 1012.7 |
| 20260503182150 | 72 | 294 | 7.0 | 8.0 | 0.00 | 0.00 | 0.00 | 22 | 1012.7 |
| 20260503181646 | 72 | 305 | 13.0 | 14.0 | 0.00 | 0.00 | 0.00 | 21 | 1013.0 |
| 20260503181143 | 71 | 317 | 6.0 | 7.0 | 0.00 | 0.00 | 0.00 | 22 | 1013.1 |
| 20260503180640 | 72 | 283 | 15.0 | 17.0 | 0.00 | 0.00 | 0.00 | 22 | 1013.0 |
| 20260503180138 | 71 | 281 | 7.0 | 8.0 | 0.00 | 0.00 | 0.00 | 23 | 1013.1 |
| 20260503175635 | 71 | 277 | 6.0 | 8.0 | 0.00 | 0.00 | 0.00 | 24 | 1013.2 |
| 20260503175132 | 71 | 264 | 9.0 | 11.0 | 0.00 | 0.00 | 0.00 | 25 | 1013.2 |
| 20260503174628 | 70 | 306 | 7.0 | 9.0 | 0.00 | 0.00 | 0.00 | 27 | 1013.4 |
| 20260503174126 | 71 | 311 | 6.0 | 7.0 | 0.00 | 0.00 | 0.00 | 27 | 1013.5 |
| 20260503173620 | 70 | 309 | 5.0 | 6.0 | 0.00 | 0.00 | 0.00 | 27 | 1013.6 |
| 20260503173117 | 70 | 325 | 6.0 | 7.0 | 0.00 | 0.00 | 0.00 | 29 | 1013.9 |
| 20260503172614 | 69 | 312 | 9.0 | 10.0 | 0.00 | 0.00 | 0.00 | 28 | 1013.8 |
| 20260503172112 | 69 | 274 | 8.0 | 9.0 | 0.00 | 0.00 | 0.00 | 26 | 1013.7 |
| 20260503171608 | 68 | 300 | 8.0 | 9.0 | 0.00 | 0.00 | 0.00 | 28 | 1013.6 |
| 20260503171105 | 67 | 296 | 5.0 | 6.0 | 0.00 | 0.00 | 0.00 | 29 | 1013.6 |
| 20260503170602 | 67 | 281 | 4.0 | 4.0 | 0.00 | 0.00 | 0.00 | 30 | 1013.9 |
| 20260503150954 | 56 | 277 | 6.0 | 8.0 | 0.00 | 0.00 | 0.00 | 56 | 1014.7 |
| 20260503150450 | 55 | 274 | 9.0 | 9.0 | 0.00 | 0.00 | 0.00 | 58 | 1014.7 |
| 20260503131344 | 37 | 275 | 3.0 | 3.0 | 0.00 | 0.00 | 0.00 | 90 | 1015.0 |
| 20260503130841 | 36 | 294 | 2.0 | 2.0 | 0.00 | 0.00 | 0.00 | 91 | 1015.0 |
| 20260503130338 | 36 | 309 | 2.0 | 2.0 | 0.00 | 0.00 | 0.00 | 92 | 1015.2 |